Tracking 19562 objects as of 22-Mar-2019
HD Live streaming from Space Station
objects crossing your sky now

FLOCK 3P 25

Track FLOCK 3P 25 now!
10-day predictions
FLOCK 3P 25 is classified as:


NORAD ID: 41964
Int'l Code: 2017-008S
Perigee: 488.8 km
Apogee: 502.6 km
Inclination: 97.4 °
Period: 94.4 minutes
Semi major axis: 6866 km
RCS: Unknown
Launch date: February 15, 2017
Source: United States (US)
Launch site: SRIHARIKOTA (SRI)
aabbcc
Your satellite tracking list
Your tracking list is empty




NASA's NSSDC Master Catalog

Two Line Element Set (TLE):
1 41964U 17008S   19081.16756927  .00002765  00000-0  11109-3 0  9997
2 41964  97.4135 149.0328 0010093  91.8799 268.3595 15.25742830116292
Source of the keplerian elements: AFSPC